Montgomery, NY

6:12 AM EST on November 21, 2017 (GMT -0500)
Orange County

Weather History for KMGJ - November, 2012

Change the Weather History Date:

Friday, November 16, 2012

  Actual Average (KSWF) Record (KSWF)
Temperature  
Mean Temperature 34 °F -  
Max Temperature 44 °F 47 °F 76 °F (1993)
Min Temperature 25 °F 30 °F 17 °F (1976)
Degree Days  
Heating Degree Days 30    
Moisture  
Dew Point 26 °F    
Average Humidity 81    
Maximum Humidity 96    
Minimum Humidity 51    
Precipitation  
Precipitation 0.00 in - - ()
Sea Level Pressure  
Sea Level Pressure 30.37 in    
Wind  
Wind Speed 1 mph (NNE)    
Max Wind Speed 7 mph    
Max Gust Speed -    
Visibility 10 miles    
Events      
Averages and records for this station are not official NWS values.
T = Trace of Precipitation, MM = Missing Value Source: NWS Daily Summary

Daily Weather History Graph

Daily Weather History Graph

Search for Another Location

Airport or City:

Trip Planner

Search our weather history database for the weather conditions in past years. The results will help you decide how hot, cold, wet, or windy it might be!

Date:

Astronomy

Nov. 16, 2012 Rise Set
Actual Time 6:47 AM EST 4:35 PM EST
Civil Twilight 6:17 AM EST 5:05 PM EST
Nautical Twilight 5:44 AM EST 5:39 PM EST
Astronomical Twilight 5:11 AM EST 6:12 PM EST
Moon 9:40 AM EST (11/16) 7:32 PM EST (11/16)
Length of Visible Light 10h 48m
Length of Day
9h 48m
Waxing Crescent, 11% of the Moon is Illuminated
Nov 16
Waxing Crescent
Nov 20
First Quarter
Nov 28
Full
Dec 6
Last Quarter
Dec 13
New

Hourly Weather History & Observations

Time (EST) Temp. Windchill Dew Point Humidity Pressure Visibility Wind Dir Wind Speed Gust Speed Precip Events Conditions
12:54 AM 28.0 °F - 25.0 °F 88% 30.32 in 10.0 mi Calm Calm - N/A   Clear
1:54 AM 28.0 °F - 26.1 °F 92% 30.32 in 10.0 mi Calm Calm - N/A   Clear
2:54 AM 28.0 °F - 27.0 °F 96% 30.32 in 10.0 mi Calm Calm - N/A   Clear
3:54 AM 27.0 °F - 25.0 °F 92% 30.32 in 10.0 mi Calm Calm - N/A   Clear
4:54 AM 26.1 °F - 25.0 °F 96% 30.33 in 10.0 mi Calm Calm - N/A   Clear
5:54 AM 26.1 °F - 24.1 °F 92% 30.32 in 9.0 mi Calm Calm - N/A   Clear
6:54 AM 25.0 °F - 23.0 °F 92% 30.33 in 10.0 mi Calm Calm - N/A   Clear
7:54 AM 28.0 °F - 25.0 °F 88% 30.35 in 10.0 mi Calm Calm - N/A   Clear
8:54 AM 32.0 °F 27.5 °F 28.0 °F 85% 30.36 in 10.0 mi North 4.6 mph - N/A   Clear
9:54 AM 35.1 °F 30.1 °F 28.0 °F 76% 30.37 in 10.0 mi North 5.8 mph - N/A   Clear
10:54 AM 37.9 °F 34.4 °F 28.9 °F 70% 30.36 in 10.0 mi NE 4.6 mph - N/A   Clear
11:54 AM 39.0 °F - 28.0 °F 65% 30.35 in 10.0 mi Calm Calm - N/A   Clear
12:54 PM 41.0 °F 37.1 °F 28.0 °F 60% 30.34 in 10.0 mi NNE 5.8 mph - N/A   Clear
1:54 PM 44.1 °F 40.1 °F 27.0 °F 51% 30.34 in 10.0 mi NNE 6.9 mph - N/A   Clear
2:54 PM 44.1 °F 41.5 °F 28.0 °F 53% 30.34 in 10.0 mi NNE 4.6 mph - N/A   Clear
3:54 PM 43.0 °F 40.3 °F 28.0 °F 56% 30.36 in 10.0 mi NE 4.6 mph - N/A   Clear
4:54 PM 37.0 °F - 28.0 °F 70% 30.37 in 10.0 mi Calm Calm - N/A   Clear
5:54 PM 32.0 °F - 27.0 °F 82% 30.39 in 10.0 mi Calm Calm - N/A   Clear
6:54 PM 32.0 °F - 28.0 °F 85% 30.40 in 10.0 mi Calm Calm - N/A   Clear
7:54 PM 30.0 °F - 27.0 °F 88% 30.42 in 10.0 mi Calm Calm - N/A   Clear
8:54 PM 30.0 °F - 26.1 °F 85% 30.43 in 10.0 mi Calm Calm - N/A   Clear
9:54 PM 28.0 °F - 25.0 °F 88% 30.45 in 10.0 mi Calm Calm - N/A   Clear
10:54 PM 27.0 °F - 25.0 °F 92% 30.46 in 10.0 mi Calm Calm - N/A   Clear
11:54 PM 27.0 °F - 25.0 °F 92% 30.48 in 9.0 mi Calm Calm - N/A   Clear